Easton, MD

2:44 PM EDT on June 28, 2017 (GMT -0400)
Easton / Newnam

Weather History for KESN - April, 2013

Change the Weather History Date:

Friday, April 5, 2013

  Actual Average Record
Temperature  
Mean Temperature 49 °F -  
Max Temperature 62 °F 59 °F 81 °F (1956)
Min Temperature 36 °F 41 °F 26 °F (1964)
Degree Days  
Heating Degree Days 16    
Moisture  
Dew Point 36 °F    
Average Humidity 83    
Maximum Humidity 100    
Minimum Humidity 30    
Precipitation  
Precipitation 0.71 in - - ()
Sea Level Pressure  
Sea Level Pressure 29.98 in    
Wind  
Wind Speed 6 mph (NNE)    
Max Wind Speed 12 mph    
Max Gust Speed -    
Visibility 8 miles    
Events Rain    
Averages and records for this station are not official NWS values.
T = Trace of Precipitation, MM = Missing Value Source: NWS Daily Summary

Daily Weather History Graph

Daily Weather History Graph

Search for Another Location

Airport or City:

Trip Planner

Search our weather history database for the weather conditions in past years. The results will help you decide how hot, cold, wet, or windy it might be!

Date:

Astronomy

Apr. 05, 2013 Rise Set
Actual Time 6:42 AM EDT 7:31 PM EDT
Civil Twilight 6:15 AM EDT 7:58 PM EDT
Nautical Twilight 5:43 AM EDT 8:30 PM EDT
Astronomical Twilight 5:10 AM EDT 9:04 PM EDT
Moon 3:45 AM EDT (4/5) 2:56 PM EDT (4/5)
Length of Visible Light 13h 43m
Length of Day
12h 49m
Waning Crescent, 24% of the Moon is Illuminated
Apr 5
Waning Crescent
Apr 10
New
Apr 18
First Quarter
Apr 25
Full
May 2
Last Quarter

Hourly Weather History & Observations

Time (EDT) Temp. Windchill Dew Point Humidity Pressure Visibility Wind Dir Wind Speed Gust Speed Precip Events Conditions
12:11 AM 37.9 °F 34.4 °F 37.9 °F 100% 30.15 in 7.0 mi South 4.6 mph - 0.01 in Rain Light Rain
12:31 AM 37.8 °F 33.3 °F 37.8 °F 100% 30.14 in 5.0 mi SSE 5.8 mph - 0.04 in Rain Rain
12:51 AM 37.6 °F 33.1 °F 37.6 °F 100% 30.12 in 7.0 mi South 5.8 mph - 0.07 in Rain Rain
1:11 AM 37.6 °F 34.0 °F 37.6 °F 100% 30.11 in 5.0 mi SSE 4.6 mph - 0.02 in Rain Rain
1:31 AM 37.6 °F 35.1 °F 37.6 °F 100% 30.09 in 5.0 mi East 3.5 mph - 0.03 in Rain Light Rain
1:51 AM 37.4 °F 34.9 °F 37.4 °F 100% 30.07 in 7.0 mi East 3.5 mph - 0.04 in Rain Rain
2:11 AM 37.0 °F 32.4 °F 37.0 °F 100% 30.05 in 5.0 mi East 5.8 mph - 0.01 in Rain Rain
2:32 AM 37.0 °F 32.4 °F 37.0 °F 100% 30.03 in 4.0 mi ENE 5.8 mph - 0.05 in Rain Rain
2:52 AM 37.0 °F 32.4 °F 37.0 °F 100% 30.02 in 4.0 mi ENE 5.8 mph - 0.10 in Rain Rain
3:12 AM 36.9 °F 34.3 °F 36.9 °F 100% 30.02 in 3.0 mi NNE 3.5 mph - 0.04 in Rain Rain
3:32 AM 37.0 °F 33.3 °F 37.0 °F 100% 30.02 in 2.5 mi North 4.6 mph - 0.12 in Rain Light Rain
3:52 AM 37.0 °F 32.4 °F 37.0 °F 100% 29.99 in 2.5 mi NE 5.8 mph - 0.21 in Rain Heavy Rain
4:12 AM 36.9 °F 32.2 °F 36.9 °F 100% 29.99 in 2.5 mi NNE 5.8 mph - 0.06 in Rain Heavy Rain
4:32 AM 37.0 °F 31.6 °F 37.0 °F 100% 29.98 in 2.5 mi NE 6.9 mph - 0.14 in Rain Rain
4:52 AM 36.9 °F 31.4 °F 36.9 °F 100% 29.98 in 3.0 mi NE 6.9 mph - 0.19 in Rain Rain
5:12 AM 36.9 °F 29.6 °F 36.9 °F 100% 29.97 in 7.0 mi NE 10.4 mph - N/A Rain Rain
5:32 AM 36.9 °F 30.7 °F 36.9 °F 100% 29.97 in 7.0 mi NE 8.1 mph - 0.03 in Rain Light Rain
5:52 AM 36.9 °F 31.4 °F 36.9 °F 100% 29.97 in 7.0 mi NE 6.9 mph - 0.04 in Rain Light Rain
5:53 AM 37.4 °F 32.1 °F 37.4 °F 100% 29.98 in 5.0 mi NNE 6.9 mph - N/A Rain Rain
6:12 AM 37.0 °F 30.4 °F 37.0 °F 100% 29.96 in 5.0 mi NE 9.2 mph - 0.02 in Rain Rain
6:32 AM 37.0 °F 31.0 °F 37.0 °F 100% 29.96 in 5.0 mi NNE 8.1 mph - 0.06 in Rain Rain
6:52 AM 37.0 °F 30.4 °F 37.0 °F 100% 29.95 in 10.0 mi ENE 9.2 mph - 0.06 in Rain Light Rain
6:53 AM 37.4 °F 30.8 °F 37.4 °F 100% 29.95 in 7.0 mi NE 9.2 mph - N/A Rain Light Rain
7:12 AM 37.0 °F 31.6 °F 37.0 °F 100% 29.95 in 10.0 mi ENE 6.9 mph - N/A   Light Drizzle
7:15 AM 37.4 °F 32.1 °F 37.4 °F 100% 29.95 in 10.0 mi ENE 6.9 mph - N/A   Overcast
7:32 AM 37.4 °F 32.8 °F 37.4 °F 100% 29.95 in 10.0 mi NNE 5.8 mph - N/A   Scattered Clouds
7:42 AM 37.4 °F 33.8 °F 37.4 °F 100% 29.95 in 10.0 mi NE 4.6 mph - N/A   Scattered Clouds
7:53 AM 37.4 °F 32.1 °F 37.4 °F 100% 29.95 in 10.0 mi NNE 6.9 mph - N/A   Overcast
8:53 AM 39.2 °F 35.0 °F 39.2 °F 100% 29.95 in 10.0 mi North 5.8 mph - N/A   Mostly Cloudy
9:53 AM 44.6 °F 40.2 °F 44.6 °F 100% 29.93 in 10.0 mi North 8.1 mph - N/A   Mostly Cloudy
10:53 AM 46.4 °F 43.5 °F 42.8 °F 87% 29.93 in 10.0 mi North 5.8 mph - N/A   Scattered Clouds
11:48 AM 50.0 °F - 42.8 °F 76% 29.92 in 10.0 mi NNW 6.9 mph - N/A   Scattered Clouds
12:50 PM 51.8 °F - 39.2 °F 62% 29.91 in 10.0 mi NNW 11.5 mph - N/A   Scattered Clouds
1:50 PM 57.2 °F - 37.4 °F 48% 29.89 in 10.0 mi North 9.2 mph - N/A   Scattered Clouds
2:50 PM 59.0 °F - 32.0 °F 36% 29.86 in 10.0 mi North 10.4 mph - N/A   Scattered Clouds
3:53 PM 62.6 °F - 30.2 °F 30% 29.85 in 10.0 mi WNW 8.1 mph - N/A   Scattered Clouds
4:50 PM 62.6 °F - 30.2 °F 30% 29.86 in 10.0 mi NW 5.8 mph - N/A   Partly Cloudy
5:51 PM 62.6 °F - 32.0 °F 32% 29.86 in 10.0 mi West 6.9 mph - N/A   Clear
6:57 PM 59.0 °F - 35.6 °F 42% 29.89 in 10.0 mi West 3.5 mph - N/A   Clear
7:52 PM 53.6 °F - 35.6 °F 51% 29.92 in 10.0 mi Calm Calm - N/A   Clear
8:54 PM 51.8 °F - 33.8 °F 50% 29.96 in 10.0 mi Calm Calm - N/A   Clear
10:54 PM 52.0 °F - 31.3 °F 45% 30.02 in 10.0 mi NNW 9.2 mph - N/A   Clear
11:14 PM 52.0 °F - 30.6 °F 44% 30.03 in 10.0 mi North 8.1 mph - N/A   Clear
11:34 PM 51.6 °F - 30.4 °F 44% 30.04 in 10.0 mi North 10.4 mph - N/A   Clear
11:54 PM 51.3 °F - 30.0 °F 44% 30.05 in 10.0 mi North 10.4 mph - N/A   Clear